Content
SEND FEEDBACK

Daily
Averages
Monthly
Summary
United States of America

WOODBINE, NEW JERSEY


Home > North America > United States > New Jersey
Elevation: 5 feet     Latitude: 39 15N     Longitude: 074 52W

WEATHER
 
SELECT A DAY
Number of Records: 205,859;   Date Range: 1/1/95 - 11/25/14
 
SHARE

PRINT THIS DATA

[ ← Previous Day ]
WEATHER ALMANAC - JANUARY 23, 2013
[ Next Day → ]
[ °C ]   °F
Weather ElementAverageHighLow
Temperature15.9 °F21.9 °F (12:54 pm)6.1 °F (2:54 am)
Dewpoint1.2 °F8.1 °F (11:54 pm)-0.9 °F (1:54 am)
Humidity53.5 %76 % (2:54 am)38 % (3:54 pm)
Barometer30.26 in30.33 in (9:54 am)30.19 in (11:54 pm)
Wind Speed6.4 mph15 mph (8:54 am)
Wind Gust21.9 mph (9:54 am)
Weather ElementAverage
Visibility10 mi
Wind DirectionSSW (190.4 °)

Weather ElementTotal
Precipitation---
Heating Degree Days51 (Base 65)
Averaged from 23 records on January 23, 2013
WEATHER CONDITIONS BREAKOUT
WIND DIRECTION BREAKOUT
WEATHER BY HOUR - JANUARY 23, 2013
[ °C ]   °F
Local TimeTemperatureDewpointHumidityBarometerVisibilityWind DirectionWind SpeedGust SpeedPrecipitationEventsConditions
1:54 AM8.1 °F-0.9 °F67 %30.28 in10.0 miCalmClear
2:54 AM6.1 °F0.0 °F76 %30.29 in10.0 miCalmClear
3:54 AM8.1 °F-0.9 °F67 %30.28 in10.0 miWest (280°)4.6 mphClear
4:54 AM10.9 °F0.0 °F61 %30.28 in10.0 miWest (280°)5.8 mphClear
5:54 AM10.9 °F-0.9 °F59 %30.29 in10.0 miWNW (290°)5.8 mphClear
6:54 AM10.9 °F-0.9 °F59 %30.30 in10.0 miWest (270°)5.8 mphClear
7:54 AM14.0 °F0.0 °F54 %30.31 in10.0 miWNW (290°)9.2 mphClear
8:54 AM16.0 °F0.0 °F49 %30.32 in10.0 miWNW (300°)15.0 mphClear
9:54 AM18.0 °F0.0 °F45 %30.33 in10.0 miWNW (290°)13.8 mph21.9 mphClear
10:54 AM19.9 °F1.0 °F44 %30.31 in10.0 miWNW (300°)10.4 mph21.9 mphClear
11:54 AM21.0 °F1.0 °F42 %30.27 in10.0 miWNW (290°)15.0 mphScattered Clouds
12:54 PM21.9 °F1.0 °F40 %30.23 in10.0 miWest (280°)11.5 mphMostly Cloudy
1:54 PM21.0 °F0.0 °F40 %30.22 in10.0 miNW (310°)9.2 mph17.3 mphScattered Clouds
2:54 PM21.0 °F1.0 °F42 %30.22 in10.0 miWest (260°)13.8 mphScattered Clouds
3:54 PM21.0 °F-0.9 °F38 %30.22 in10.0 miWNW (290°)10.4 mph19.6 mphScattered Clouds
4:54 PM19.9 °F-0.9 °F40 %30.22 in10.0 miWNW (300°)8.1 mphMostly Cloudy
5:54 PM18.0 °F0.0 °F45 %30.24 in10.0 miNW (320°)4.6 mphClear
6:54 PM17.1 °F3.0 °F54 %30.23 in10.0 miCalmOvercast
7:54 PM19.0 °F1.0 °F46 %30.22 in10.0 miCalmOvercast
8:54 PM16.0 °F6.1 °F65 %30.22 in10.0 miCalmOvercast
9:54 PM16.0 °F5.0 °F62 %30.21 in10.0 miNNE (30°)3.5 mphOvercast
10:54 PM15.1 °F5.0 °F64 %30.21 in10.0 miCalmOvercast
11:54 PM16.0 °F8.1 °F71 %30.19 in10.0 miCalmOvercast
Hourly data recorded from KMIV, located miles away from Woodbine, New Jersey







STORIES FROM OUR PARTNERS